Вернуться в каталог

CZ-6A DEB

АктивенSSO
NORAD 54949·DEBRIS·🇨🇳 China

Запущен Nov 11, 2022 с Taiyuan Satellite Launch Center

Loading…

Ближайшие Пролёты (ближайшие 24 часа)

TLE

СвежийSource: Space-Track

Эпоха: Sep 13, 2026, 14:47 UTC

1 54949U 22151SN  26256.61643219  .00002813  00000-0  68141-3 0  9992
2 54949  98.6053 302.9587 0091870  73.6976 287.4298 14.51272712201905

Отслеживайте CZ-6A DEB в реальном времени с AllMySat

Download on the App Store